Location: Acequia del Cap
(41.7000°N, 0.6167°E)
Time: 00:24:25
(UTC+00:00)

Cosmos 2279 Rocket - Pass Details

Date: 07 August 2020
Orbit: 965 x 978 km, 82.9° (Epoch: 22 September)

Event Time Altitude Azimuth Distance (km) Brightness Sun altitude
Exits shadow 01:44:44 55° 143° (SE) 1,151 4.1 -27.4°
Maximum altitude 01:45:53 66° 93° (E) 1,051 4.1 -27.3°
Drops below altitude 10° 01:52:01 10° 13° (NNE) 2,715 7.2 -26.8°
Sets 01:54:33 0° 11° (N) 3,667 8.1 -26.5°
